Date,TemperatureHighF,TemperatureAvgF,TemperatureLowF,DewpointHighF,DewpointAvgF,DewpointLowF,HumidityHigh,HumidityAvg,HumidityLow,PressureMaxIn,PressureMinIn,WindSpeedMaxMPH,WindSpeedAvgMPH,GustSpeedMaxMPH,PrecipitationSumIn
2013-1-1,23.2,19.4,16.9,18.6,15.3,12.8,92,84,71,30.20,29.06,5,1,9,0.00
2013-1-2,23.9,21.6,17.8,21.6,18.5,13.8,91,88,84,29.14,29.04,6,2,8,0.00
2013-1-3,27.7,25.6,23.9,24.9,22.5,21.7,92,88,82,29.09,28.98,6,3,11,0.00
2013-1-4,27.4,25.0,22.1,24.3,22.1,20.3,96,89,85,30.13,28.91,8,4,18,0.00
2013-1-5,35.5,28.2,13.7,33.0,25.6,12.1,97,90,83,30.21,29.88,8,3,15,0.00
2013-1-6,33.2,30.4,26.2,32.2,27.1,20.9,96,88,79,30.27,29.82,10,2,15,0.00
2013-1-7,39.9,32.0,20.8,30.6,25.7,17.8,89,78,60,30.27,29.95,13,6,23,0.01
2013-1-8,41.2,34.9,29.5,33.5,30.2,27.7,93,83,73,30.14,29.97,9,4,18,0.12
2013-1-9,39.4,36.7,28.6,33.8,30.2,25.6,89,77,72,30.42,29.83,12,5,19,0.03
2013-1-10,42.7,31.7,20.9,30.7,25.6,19.9,97,80,53,30.53,30.08,11,3,14,0.00
2013-1-11,45.5,39.7,34.6,44.8,38.6,31.0,99,96,82,30.08,29.64,11,6,19,0.27
2013-1-12,52.4,43.8,31.9,46.2,39.1,28.6,98,84,59,29.93,29.61,11,6,22,0.01
2013-1-13,31.9,28.3,21.9,29.9,26.3,18.9,95,92,87,30.04,29.82,5,1,22,0.03
2013-1-14,25.0,20.3,17.7,19.1,16.1,14.8,91,84,68,30.40,30.04,5,2,22,0.00
2013-1-15,28.1,21.6,10.2,20.2,16.3,7.8,92,80,70,30.41,30.10,7,3,22,0.00
2013-1-16,29.7,26.0,21.7,28.0,22.8,17.5,96,88,76,30.08,29.68,10,4,18,0.00
2013-1-17,25.3,16.9,10.8,18.7,11.6,3.9,91,80,60,30.37,30.00,7,4,18,0.00
2013-1-18,38.2,21.3,6.7,33.7,17.2,3.3,88,84,69,30.41,29.77,12,4,18,0.00
2013-1-19,39.4,36.7,25.1,36.7,33.1,22.8,95,87,67,29.83,29.45,13,4,15,0.11
2013-1-20,24.9,14.0,11.4,22.3,10.5,6.8,93,86,73,30.18,29.53,13,4,20,0.00
2013-1-21,11.2,5.8,-2.3,8.3,2.8,-5.2,89,87,83,30.17,30.01,5,2,20,0.00
2013-1-22,6.4,1.9,-1.9,3.4,-0.8,-4.8,89,88,86,30.31,30.16,4,0,7,0.00
2013-1-23,13.4,9.4,4.0,10.8,7.1,1.5,92,90,86,30.30,30.09,4,1,7,0.00
2013-1-24,19.6,9.1,4.4,17.0,6.7,1.8,93,90,85,30.68,30.25,5,1,7,0.00
2013-1-25,20.1,14.3,9.2,16.6,10.7,5.1,89,85,77,30.50,29.98,9,5,14,0.00
2013-1-26,31.3,22.9,15.3,22.9,18.9,13.6,95,85,64,30.42,30.20,2,0,3,0.03
2013-1-27,31.3,25.7,19.2,26.1,22.0,17.8,96,86,68,30.43,30.03,12,5,12,0.00
2013-1-28,35.9,31.8,27.1,34.9,30.6,25.6,97,96,93,30.04,29.82,12,2,12,0.09
2013-1-29,51.7,40.5,32.2,51.1,39.7,30.8,99,97,94,29.98,29.45,11,5,14,0.84
2013-1-30,36.2,30.7,21.6,35.7,30.0,20.4,98,97,95,29.46,29.13,11,6,14,0.22
2013-1-31,21.6,16.5,13.9,20.6,15.0,12.3,96,93,90,29.91,29.29,6,3,9,0.00
2013-2-1,14.8,12.3,8.1,12.5,9.9,5.7,93,90,82,30.18,29.91,5,2,8,0.00
2013-2-2,17.6,10.5,6.7,13.1,7.6,4.3,91,88,79,30.15,30.05,5,1,8,0.00
2013-2-3,16.5,13.1,9.5,13.3,9.5,5.6,90,85,79,30.05,29.87,4,2,8,0.00
2013-2-4,20.2,10.7,-4.5,10.8,5.6,-7.1,91,80,59,30.03,29.95,3,0,6,0.00
2013-2-5,23.2,12.4,-7.1,20.5,9.2,-9.9,94,87,80,30.06,29.75,9,3,13,0.00
2013-2-6,29.4,18.9,0.4,23.5,13.8,-1.9,94,81,63,30.28,30.05,6,2,13,0.00
2013-2-7,29.8,27.3,23.4,27.5,25.8,22.3,97,94,90,30.21,30.04,11,4,13,0.00
2013-2-8,24.3,19.7,2.7,22.2,17.7,0.5,96,92,84,30.42,30.06,13,6,17,0.00
2013-2-9,31.5,13.3,-6.9,21.1,8.1,-9.8,93,80,61,30.45,30.23,8,2,13,0.00
2013-2-10,38.6,26.9,12.7,37.3,23.6,10.8,95,87,71,30.23,29.50,14,6,23,0.14
2013-2-11,42.5,34.8,28.3,41.0,33.2,23.7,97,94,83,29.81,29.38,11,6,21,0.20
2013-2-12,28.5,25.9,23.9,25.1,22.0,19.5,89,85,78,29.99,29.81,5,2,21,0.00
2013-2-13,38.5,31.7,24.9,31.3,27.9,21.8,94,86,74,29.87,29.68,6,3,21,0.11
2013-2-14,33.6,30.7,21.8,32.6,29.4,20.3,97,95,91,29.90,29.57,12,3,21,0.00
2013-2-15,22.2,19.8,15.6,20.2,17.1,13.9,94,89,77,30.16,29.90,5,2,9,0.00
2013-2-16,23.4,14.2,5.4,18.7,10.3,1.7,93,85,62,30.18,30.08,9,2,11,0.00
2013-2-17,22.2,11.4,-0.8,14.6,7.1,-3.3,91,83,68,30.24,30.13,5,1,11,0.00
2013-2-18,42.0,30.0,15.8,38.5,22.5,11.6,96,74,59,30.13,29.40,12,8,19,0.17
2013-2-19,40.8,25.1,12.8,39.6,23.7,10.9,98,95,92,29.92,29.23,9,6,18,0.14
2013-2-20,21.0,16.9,13.4,17.9,14.3,11.2,93,90,84,30.34,29.93,10,6,16,0.00
2013-2-21,21.0,18.4,13.5,17.5,14.8,10.7,91,86,76,30.45,30.31,13,5,17,0.00
2013-2-22,27.4,24.2,17.4,25.4,21.9,12.3,95,91,78,30.32,29.82,11,6,16,0.00
2013-2-23,31.8,28.6,25.8,28.7,26.6,24.2,96,92,85,29.86,29.77,6,2,14,0.00
2013-2-24,37.2,30.1,26.3,27.6,26.4,24.2,97,87,60,30.16,29.84,5,1,14,0.12
2013-2-25,37.2,27.3,11.7,28.4,23.6,10.1,96,86,68,30.22,30.13,8,1,14,0.02
2013-2-26,36.5,29.9,23.9,28.1,24.8,20.0,92,81,67,30.18,29.73,16,8,20,0.01
2013-2-27,34.2,32.3,31.0,31.9,30.7,28.1,98,94,86,29.73,29.62,13,10,16,0.04
2013-2-28,31.9,29.5,25.2,31.4,26.2,18.3,98,88,74,30.10,29.71,14,11,19,0.00
2013-3-1,24.9,21.1,17.7,19.2,16.1,13.1,86,81,75,30.25,30.10,13,8,17,0.00
2013-3-2,25.0,18.0,3.6,18.8,13.9,1.3,94,84,77,30.23,30.16,9,4,12,0.00
2013-3-3,24.5,17.7,7.5,18.2,13.8,5.2,95,85,74,30.16,30.09,7,2,9,0.00
2013-3-4,26.6,20.3,9.1,20.7,15.1,6.2,93,80,67,30.20,30.15,7,2,8,0.00
2013-3-5,36.0,21.5,5.6,25.4,15.7,2.6,91,79,59,30.20,29.99,10,4,13,0.00
2013-3-6,39.4,31.4,25.9,30.4,27.6,22.8,95,86,70,30.30,30.09,10,5,13,0.00
2013-3-7,28.1,26.1,20.8,25.1,21.3,17.3,92,82,72,30.47,30.29,9,3,10,0.00
2013-3-8,44.6,25.4,6.2,26.6,18.4,4.1,94,78,41,30.55,30.40,6,1,7,0.00
2013-3-9,42.8,32.8,19.8,33.8,25.4,18.1,94,76,49,30.40,29.95,11,4,15,0.24
2013-3-10,43.1,38.2,34.7,42.0,36.8,33.8,99,94,88,29.94,29.77,11,4,16,0.77
2013-3-11,46.9,39.8,30.9,45.6,39.3,30.0,99,98,95,29.76,29.42,7,3,11,0.30
2013-3-12,30.6,27.5,22.5,29.9,25.1,20.1,97,90,80,29.89,29.57,7,2,9,0.02
2013-3-13,29.3,23.4,19.2,21.0,17.5,13.1,95,79,56,30.25,29.89,9,4,17,0.00
2013-3-14,37.7,24.8,10.2,23.0,16.5,8.2,94,73,48,30.28,30.04,5,1,8,0.05
2013-3-15,32.7,31.5,29.5,31.1,28.6,23.2,95,89,77,30.04,29.90,10,3,14,0.00
2013-3-16,24.9,20.2,12.9,19.2,15.7,10.0,94,83,69,30.08,29.93,7,3,11,0.00
2013-3-17,25.4,21.2,16.7,19.4,12.3,8.5,91,69,55,30.35,30.07,10,4,14,0.00
2013-3-18,38.0,26.0,15.8,28.5,19.3,8.8,95,77,45,30.22,29.52,13,6,14,0.01
2013-3-19,30.4,24.5,19.5,29.1,22.3,18.1,95,91,77,29.89,29.50,7,4,14,0.00
2013-3-20,24.8,21.4,18.5,21.0,15.8,9.5,93,79,55,29.95,29.88,6,2,12,0.00
2013-3-21,28.0,24.5,20.4,24.8,21.6,18.2,95,89,77,30.00,29.88,8,4,12,0.00
2013-3-22,31.9,27.2,20.1,26.3,22.6,16.8,89,83,77,30.08,29.98,5,2,12,0.03
2013-3-23,35.4,30.1,25.2,27.2,25.0,22.1,89,81,70,30.15,30.07,6,2,8,0.04
2013-3-24,33.9,30.3,27.7,27.8,24.8,19.9,93,80,64,30.12,29.84,13,6,16,0.00
2013-3-25,34.9,31.6,29.1,29.2,26.2,21.6,85,80,71,30.04,29.82,13,9,19,0.00
2013-3-26,39.0,34.2,29.7,32.7,29.1,23.5,94,82,59,30.18,30.04,8,4,10,0.00
2013-3-27,41.1,34.0,25.9,30.4,26.5,22.5,93,75,57,30.26,30.17,8,3,13,0.00
2013-3-28,44.9,33.7,21.5,27.4,23.7,19.8,95,70,44,30.31,30.25,5,1,8,0.00
2013-3-29,43.5,32.0,18.7,29.5,21.4,17.3,95,68,41,30.32,30.24,6,1,8,0.00
2013-3-30,50.1,36.7,18.5,38.8,23.0,16.4,93,63,28,30.25,29.82,9,3,14,0.08
2013-3-31,42.2,37.6,28.0,40.5,35.0,18.8,98,91,66,29.82,29.60,10,4,15,0.22
2013-4-1,29.8,25.6,21.9,22.2,16.7,10.0,91,69,53,30.13,29.80,9,5,14,0.00
2013-4-2,33.4,24.8,14.7,21.0,15.4,11.3,95,70,43,30.30,30.10,8,2,12,0.00
2013-4-3,39.1,27.8,16.9,19.6,17.2,14.3,91,66,44,30.47,30.30,8,2,12,0.00
2013-4-4,48.7,36.5,26.0,37.0,23.5,7.4,98,62,36,30.31,29.95,9,4,14,0.04
2013-4-5,35.7,31.5,27.2,31.0,21.5,17.7,83,67,51,30.25,30.04,11,4,13,0.00
2013-4-6,48.8,36.3,28.7,36.4,27.0,18.4,88,69,59,30.23,29.57,17,6,19,0.01
2013-4-7,50.3,39.3,30.8,46.4,34.8,27.3,97,85,61,30.04,29.44,10,4,17,0.39
2013-4-8,41.0,35.9,29.4,38.6,33.3,26.8,98,90,78,30.02,29.75,10,4,13,0.36
2013-4-9,41.4,36.8,33.2,40.3,36.1,32.2,98,97,94,30.11,30.00,14,6,22,0.33
2013-4-10,37.6,34.4,32.2,35.8,33.0,31.4,99,95,84,30.14,30.03,12,7,22,0.95
2013-4-11,35.6,33.5,30.3,32.7,28.4,24.3,96,82,66,30.08,29.74,16,8,23,0.01
2013-4-12,36.8,32.7,30.6,35.0,31.1,28.3,97,94,91,29.74,29.59,6,2,22,0.10
2013-4-13,36.2,33.2,30.6,34.2,29.6,25.4,97,87,66,29.93,29.71,6,2,22,0.28
2013-4-14,43.3,36.0,24.1,34.1,28.8,23.4,98,77,52,30.08,29.87,12,4,22,0.04
2013-4-15,55.2,45.9,38.3,52.2,42.8,32.6,98,89,79,29.88,29.73,12,5,22,0.25
2013-4-16,47.0,40.5,31.5,41.9,33.0,29.8,98,76,55,30.32,29.88,7,2,22,0.00
2013-4-17,49.0,38.8,28.5,38.6,33.3,27.3,96,82,52,30.39,30.04,12,4,22,0.17
2013-4-18,55.3,44.1,37.5,55.0,43.3,36.2,99,97,95,30.04,29.33,8,3,14,0.82
2013-4-19,57.3,38.1,28.4,56.5,31.5,16.6,99,77,54,29.70,29.23,12,8,26,0.00
2013-4-20,34.3,28.2,23.6,22.4,19.4,14.8,94,71,46,30.46,29.71,8,4,14,0.00
2013-4-21,48.2,35.6,19.6,28.7,19.9,14.1,89,57,29,30.61,30.36,10,4,13,0.00
2013-4-22,66.4,48.9,38.3,35.6,31.6,28.1,80,54,28,30.36,30.10,10,6,13,0.00
2013-4-23,58.6,44.6,32.5,47.3,37.1,31.4,97,76,58,30.10,29.84,9,4,12,0.40
2013-4-24,46.8,37.3,31.9,32.0,28.1,21.6,96,73,38,30.01,29.90,8,4,12,0.09
2013-4-25,47.6,40.0,35.0,36.1,30.3,26.0,93,69,45,30.28,29.92,8,4,13,0.05
2013-4-26,63.8,48.1,32.0,42.9,34.2,28.3,88,61,34,30.34,30.15,14,6,19,0.00
2013-4-27,70.0,58.8,47.6,49.7,44.3,35.1,90,61,35,30.23,30.05,7,3,11,0.07
2013-4-28,70.9,55.8,40.6,49.3,42.1,36.7,93,63,37,30.05,29.79,10,2,11,0.00
2013-4-29,67.3,56.8,47.7,57.0,52.3,46.1,98,85,61,29.85,29.79,5,1,6,0.02
2013-4-30,77.1,64.7,55.9,61.1,56.9,52.3,95,77,53,29.87,29.75,17,8,22,0.34
2013-5-1,80.2,66.9,45.9,61.4,55.5,37.0,85,67,49,30.23,29.85,14,7,21,0.00
2013-5-2,63.5,46.1,38.7,48.5,39.3,34.9,90,78,56,30.27,30.16,13,8,16,0.00
2013-5-3,62.4,48.4,37.3,50.7,42.1,35.3,95,80,61,30.22,30.03,9,5,12,0.05
2013-5-4,78.6,59.7,42.6,49.3,44.0,36.6,93,60,29,30.09,30.01,12,4,20,0.00
2013-5-5,76.6,59.5,46.7,46.6,39.5,35.9,75,50,28,30.09,30.01,11,3,15,0.00
2013-5-6,75.0,58.1,42.6,46.7,40.6,35.7,93,57,26,30.08,29.98,13,3,19,0.00
2013-5-7,76.8,59.9,43.2,47.9,40.2,30.9,88,53,24,30.06,29.97,11,3,19,0.00
2013-5-8,76.7,62.8,46.7,52.0,43.7,38.8,85,54,26,30.01,29.94,10,2,19,0.00
2013-5-9,74.2,56.3,44.6,49.0,44.5,40.2,92,68,34,30.00,29.91,11,4,19,0.00
2013-5-10,45.4,41.7,39.2,43.6,40.4,37.9,98,95,91,29.98,29.91,14,8,17,0.64
2013-5-11,46.8,40.5,34.3,45.2,38.0,33.0,99,91,70,29.95,29.71,10,3,16,0.16
2013-5-12,38.4,35.4,29.2,34.4,29.9,25.6,96,81,65,30.10,29.83,11,6,23,0.11
2013-5-13,51.4,40.2,26.5,33.1,25.6,19.9,95,60,31,30.18,30.03,6,2,19,0.00
2013-5-14,69.9,55.9,40.4,48.8,40.0,23.1,82,56,42,30.04,29.57,10,5,14,0.01
2013-5-15,73.3,63.7,53.6,52.9,47.1,39.5,78,57,30,29.76,29.44,10,4,17,0.00
2013-5-16,63.9,56.5,46.3,49.3,42.4,37.9,88,61,40,30.05,29.75,11,4,15,0.00
2013-5-17,61.5,51.9,41.5,50.3,44.4,38.2,92,76,56,30.17,30.05,7,3,11,0.01
2013-5-18,75.4,59.7,50.7,49.2,46.4,44.5,86,65,36,30.16,29.99,11,4,15,0.03
2013-5-19,83.4,75.4,63.0,64.5,61.6,58.7,86,63,46,29.91,29.78,9,3,16,0.00
2013-5-20,84.9,71.0,60.4,69.9,62.3,57.3,94,76,47,29.83,29.66,12,4,17,0.02
2013-5-21,80.8,66.4,57.3,65.5,61.1,56.6,98,85,51,29.71,29.59,10,3,15,0.28
2013-5-22,62.8,57.6,52.9,61.6,57.0,52.4,99,98,93,29.71,29.61,8,2,15,0.60
2013-5-23,52.8,44.8,38.8,52.2,41.5,34.3,99,89,65,30.25,29.70,15,9,25,0.06
2013-5-24,53.1,43.6,35.5,39.2,35.3,31.3,93,74,46,30.41,30.25,11,4,25,0.00
2013-5-25,60.7,48.2,31.9,42.8,37.1,31.1,98,69,41,30.45,30.31,10,3,12,0.00
2013-5-26,65.7,51.5,33.7,41.9,37.3,32.6,96,63,32,30.37,30.21,7,2,10,0.00
2013-5-27,72.2,58.2,41.5,45.6,38.8,33.2,85,53,26,30.24,29.95,10,4,14,0.00
2013-5-28,62.4,57.9,53.9,61.5,53.9,43.0,98,88,57,29.95,29.71,7,3,12,0.25
2013-5-29,78.7,64.2,53.2,66.6,60.2,52.6,99,88,61,29.91,29.72,5,2,8,0.00
2013-5-30,86.8,77.1,65.9,69.8,66.1,61.3,89,70,47,29.89,29.78,12,6,19,0.01
2013-5-31,81.1,72.9,66.8,67.6,64.6,61.7,95,77,55,29.83,29.70,9,5,15,0.10
2013-6-1,76.1,69.0,60.6,67.6,63.9,57.3,96,84,64,29.71,29.59,8,4,14,0.33
2013-6-2,61.0,47.8,37.3,58.5,44.4,36.0,96,88,72,30.03,29.56,8,4,17,0.07
2013-6-3,63.5,49.2,32.8,46.4,39.3,32.3,98,72,42,30.13,30.01,9,2,13,0.01
2013-6-4,62.6,50.8,37.2,50.1,42.1,36.4,97,75,38,30.20,30.13,5,2,8,0.06
2013-6-5,60.0,53.4,47.7,53.3,49.6,43.4,96,87,63,30.19,30.05,6,2,8,0.11
2013-6-6,68.2,58.4,50.5,51.8,46.8,43.6,83,66,50,30.06,29.91,7,4,9,0.00
2013-6-7,71.3,59.7,47.7,50.5,44.8,37.0,94,61,34,29.96,29.87,10,3,13,0.00
2013-6-8,71.4,58.3,43.8,56.2,48.1,42.0,96,72,37,30.04,29.90,7,2,8,0.00
2013-6-9,78.7,63.6,47.2,59.3,53.5,43.9,96,72,48,30.08,29.92,10,4,14,0.00
2013-6-10,73.9,65.3,59.2,63.5,58.0,51.9,96,78,64,29.92,29.75,9,4,13,0.00
2013-6-11,79.8,67.2,57.7,67.0,60.9,56.5,99,82,55,29.87,29.76,5,2,10,0.00
2013-6-12,77.5,65.9,55.3,64.4,56.7,47.4,98,75,37,29.88,29.69,7,3,9,0.00
2013-6-13,65.1,59.9,54.0,56.6,52.6,50.0,89,77,62,30.01,29.69,11,5,15,0.00
2013-6-14,72.1,60.4,48.6,51.6,46.0,35.5,90,63,28,30.11,30.00,7,3,10,0.00
2013-6-15,73.4,61.8,43.4,63.1,52.7,39.9,90,73,50,30.03,29.80,6,1,8,0.00
2013-6-16,79.5,68.4,60.0,66.1,59.9,53.3,99,77,46,29.82,29.70,6,2,12,0.75
2013-6-17,70.4,62.6,56.1,61.5,56.7,53.1,95,82,67,29.97,29.81,10,4,12,0.08
2013-6-18,67.5,60.4,52.0,54.2,49.6,41.9,96,70,44,30.09,29.96,10,6,13,0.00
2013-6-19,75.8,60.8,42.8,51.3,46.8,41.7,97,64,36,30.17,30.07,6,2,8,0.00
2013-6-20,83.3,67.5,48.7,58.9,52.3,44.0,93,62,35,30.15,30.07,5,1,10,0.00
2013-6-21,84.1,72.1,57.9,68.4,61.7,54.7,89,71,52,30.12,29.88,14,4,20,0.00
2013-6-22,83.9,69.4,62.1,70.1,63.7,60.4,96,83,62,30.04,29.90,7,2,10,0.00
2013-6-23,87.7,75.0,63.7,72.9,67.8,61.3,96,79,59,29.98,29.81,9,4,13,0.00
2013-6-24,84.2,76.5,68.6,71.4,68.4,63.9,91,77,61,29.93,29.81,7,3,9,0.00
2013-6-25,80.9,72.7,66.5,68.1,65.7,64.0,93,80,61,29.83,29.77,6,2,10,0.00
2013-6-26,90.2,74.0,59.8,70.6,65.1,59.1,98,77,45,29.79,29.70,5,1,11,0.00
2013-6-27,82.5,71.6,63.9,69.0,65.0,60.5,96,81,59,29.74,29.63,7,2,8,0.00
2013-6-28,77.3,68.1,59.0,65.4,61.5,57.2,96,81,62,29.62,29.52,9,3,14,0.00
2013-6-29,72.0,66.3,61.4,62.9,60.0,55.6,97,81,58,29.78,29.57,11,6,15,0.06
2013-6-30,75.5,67.2,56.8,57.1,51.8,41.3,91,61,31,30.00,29.78,13,5,18,0.00
2013-7-1,80.4,68.8,51.9,57.8,52.8,43.8,91,59,35,30.11,30.00,10,5,15,0.00
2013-7-2,71.9,62.7,46.1,53.6,48.2,41.3,90,60,44,30.12,30.05,8,3,12,0.00
2013-7-3,80.3,67.8,56.5,64.8,58.0,53.1,96,73,54,30.08,29.98,8,2,10,0.25
2013-7-4,78.3,68.1,61.1,66.1,61.9,58.2,97,82,56,30.06,29.99,6,2,9,0.00
2013-7-5,86.7,74.6,62.5,67.9,62.0,57.8,93,67,41,30.04,29.95,5,2,11,0.00
2013-7-6,87.9,76.1,65.9,66.9,62.3,56.8,86,64,41,30.01,29.91,5,2,10,0.00
2013-7-7,87.7,76.3,66.1,69.5,65.9,62.8,93,72,47,29.95,29.86,6,2,12,0.25
2013-7-8,78.0,70.8,66.9,72.6,68.5,65.5,98,93,80,29.94,29.86,7,2,12,1.29
2013-7-9,85.9,73.2,67.0,72.9,69.0,66.1,99,88,62,29.96,29.70,7,1,12,0.21
2013-7-10,73.4,69.1,59.6,70.8,62.9,55.9,98,82,58,29.93,29.69,8,3,12,0.07
2013-7-11,72.5,64.9,55.9,61.1,56.9,50.7,98,78,48,30.07,29.93,9,3,12,0.01
2013-7-12,85.9,68.2,52.3,64.6,55.6,45.6,98,70,26,30.16,30.06,5,1,12,0.00
2013-7-13,86.4,72.3,57.9,65.4,61.1,56.8,98,71,41,30.17,30.08,6,2,12,0.00
2013-7-14,89.7,74.9,59.5,68.8,63.4,57.5,95,70,38,30.21,30.16,7,1,12,0.00
2013-7-15,89.1,77.5,64.4,72.0,66.9,62.9,96,72,45,30.25,30.18,6,2,12,0.00
2013-7-16,93.3,80.8,66.2,75.3,70.2,64.1,95,72,53,30.24,30.15,5,2,12,0.00
2013-7-17,92.5,82.7,74.4,75.7,72.8,70.1,93,74,49,30.19,30.07,5,2,13,0.00
2013-7-18,94.1,83.9,72.8,75.6,72.1,68.7,95,70,45,30.08,29.78,7,3,13,0.00
2013-7-19,90.3,81.7,70.9,72.9,70.6,64.5,83,70,51,29.78,29.61,7,5,17,0.10
2013-7-20,73.3,66.8,56.3,65.8,56.0,44.7,98,71,41,29.97,29.70,10,4,13,0.01
2013-7-21,76.4,62.3,47.4,57.8,50.7,45.9,96,69,37,30.02,29.91,7,2,12,0.00
2013-7-22,86.8,74.6,59.7,67.2,62.4,54.6,92,67,48,29.91,29.63,8,3,12,0.00
2013-7-23,75.2,63.7,55.5,67.3,56.4,47.3,98,78,64,29.92,29.59,11,6,17,0.82
2013-7-24,70.0,61.4,49.6,53.0,50.2,46.8,92,68,50,30.06,29.92,6,2,12,0.00
2013-7-25,79.6,65.2,48.3,57.3,52.1,45.1,97,66,41,30.06,29.96,6,2,12,0.00
2013-7-26,77.6,65.4,57.1,65.6,58.6,42.4,96,80,42,29.98,29.80,12,4,22,0.55
2013-7-27,62.4,57.4,54.3,61.3,55.2,50.4,97,92,84,29.83,29.78,6,2,12,0.04
2013-7-28,64.1,56.4,49.3,55.4,52.5,48.2,98,87,64,29.88,29.74,5,1,12,0.14
2013-7-29,68.4,59.6,53.8,57.9,55.0,53.2,98,86,62,30.16,29.88,6,2,9,0.05
2013-7-30,75.7,63.1,49.9,60.9,56.5,49.4,99,81,55,30.20,30.08,5,1,5,0.01
2013-7-31,77.4,67.6,60.2,64.5,61.9,57.6,96,83,61,30.08,29.85,5,2,9,0.00
2013-8-1,73.8,66.4,58.4,61.8,58.3,52.8,98,78,51,29.87,29.83,6,2,12,0.01
2013-8-2,74.4,65.6,58.0,65.2,59.2,55.2,95,81,55,29.90,29.77,5,2,13,0.58
2013-8-3,71.0,62.6,52.4,59.5,55.7,51.6,99,80,57,30.08,29.90,8,3,11,0.00
2013-8-4,69.3,60.4,50.0,56.9,51.2,46.1,98,74,48,30.18,30.08,7,2,11,0.00
2013-8-5,72.5,59.2,45.6,59.8,51.6,44.8,98,78,43,30.10,29.88,4,1,11,0.03
2013-8-6,78.2,69.2,61.0,67.5,63.1,56.4,92,81,66,29.88,29.76,6,3,12,0.00
2013-8-7,73.8,67.6,60.5,68.0,62.8,53.1,96,85,70,29.95,29.63,9,3,12,0.30
2013-8-8,73.9,62.8,47.6,57.3,52.7,46.6,97,73,45,30.03,29.96,5,2,9,0.00
2013-8-9,76.5,63.6,49.7,61.0,54.8,48.7,97,75,52,30.01,29.89,6,2,12,0.00
2013-8-10,74.0,63.0,49.1,57.1,52.8,47.9,97,72,45,30.12,30.01,6,2,8,0.00
2013-8-11,74.6,63.0,50.6,62.5,56.1,49.6,99,80,51,30.10,30.00,4,1,8,0.00
2013-8-12,78.9,63.7,51.7,63.8,57.8,51.2,99,84,54,30.03,29.84,12,2,16,0.12
2013-8-13,63.2,57.4,52.5,53.1,48.3,45.5,90,73,55,30.10,29.94,11,7,16,0.00
2013-8-14,67.8,56.9,44.4,54.5,48.3,43.6,98,75,48,30.18,30.10,8,2,9,0.00
2013-8-15,75.3,62.2,48.0,57.4,51.0,45.4,92,70,40,30.11,30.04,6,2,12,0.00
2013-8-16,80.5,65.2,48.0,61.0,52.8,47.2,97,69,36,30.17,30.09,8,1,11,0.00
2013-8-17,83.9,67.1,50.5,59.7,52.7,47.9,98,66,31,30.23,30.15,5,1,8,0.00
2013-8-18,83.7,67.0,50.1,57.1,53.0,48.3,95,66,30,30.19,30.06,5,1,9,0.00
2013-8-19,82.4,68.3,52.0,64.5,57.6,50.6,98,72,43,30.07,29.97,6,2,11,0.00
2013-8-20,86.4,74.9,65.1,66.2,63.0,60.1,90,69,47,30.03,29.97,6,3,11,0.00
2013-8-21,90.1,78.3,67.3,68.9,66.0,62.3,91,67,48,29.98,29.84,8,4,16,0.25
2013-8-22,78.0,69.4,57.0,68.8,60.9,51.1,98,77,42,30.09,29.87,7,2,9,0.06
2013-8-23,77.6,63.8,49.3,62.1,55.8,48.8,98,78,49,30.18,30.09,8,2,10,0.00
2013-8-24,83.5,69.0,55.4,59.9,56.1,53.4,94,67,38,30.25,30.17,4,2,10,0.00
2013-8-25,89.8,76.0,60.2,69.9,62.8,55.8,86,65,49,30.17,29.98,8,5,14,0.00
2013-8-26,87.5,77.1,68.7,71.6,68.1,64.9,94,75,48,30.03,29.90,9,3,11,0.05
2013-8-27,72.5,69.7,67.2,71.0,68.6,65.4,99,96,93,29.94,29.79,10,2,12,2.66
2013-8-28,83.3,72.9,66.5,72.6,69.5,65.4,99,90,64,30.01,29.80,8,3,10,0.00
2013-8-29,88.8,74.4,61.7,72.9,67.6,61.4,99,82,50,30.05,29.92,4,1,7,0.01
2013-8-30,76.9,72.3,68.9,72.9,67.9,64.2,93,86,73,29.94,29.73,9,3,11,0.07
2013-8-31,79.4,70.5,62.6,66.5,64.5,61.3,97,82,62,29.84,29.76,7,3,9,0.00
2013-9-1,82.1,68.9,59.3,68.1,63.6,58.7,99,85,56,29.82,29.64,8,2,11,0.00
2013-9-2,63.8,57.9,55.1,60.0,54.1,51.1,94,87,77,29.94,29.76,8,5,13,0.03
2013-9-3,70.9,62.5,53.3,56.9,53.3,50.8,95,73,53,30.01,29.93,6,2,10,0.00
2013-9-4,68.0,61.4,50.7,62.5,56.9,48.4,96,86,62,30.13,29.93,7,2,10,0.01
2013-9-5,64.6,55.4,44.2,49.4,45.5,41.0,96,71,46,30.30,30.14,7,3,10,0.00
2013-9-6,78.5,61.8,42.9,61.8,51.7,41.8,97,72,50,30.23,29.95,5,2,11,0.00
2013-9-7,77.1,71.6,67.3,71.8,66.5,57.3,95,84,66,29.96,29.82,10,3,14,0.20
2013-9-8,73.0,64.8,56.6,63.6,55.4,48.3,93,73,42,30.11,29.96,8,4,12,0.00
2013-9-9,77.8,65.9,57.8,72.3,60.4,48.9,94,83,70,30.01,29.71,7,4,11,0.07
2013-9-10,88.5,80.9,71.4,73.9,70.7,66.2,85,72,56,29.91,29.71,6,3,13,0.00
2013-9-11,77.2,69.3,63.9,68.4,65.7,62.9,98,89,69,29.94,29.86,4,2,7,0.54
2013-9-12,69.0,60.7,50.0,66.9,55.7,46.9,99,84,68,30.05,29.87,12,5,17,0.03
2013-9-13,57.0,50.2,39.7,48.1,43.8,38.0,95,80,63,30.16,30.04,10,5,17,0.00
2013-9-14,67.2,52.0,36.2,51.7,44.9,35.6,98,79,49,30.17,30.00,5,2,10,0.00
2013-9-15,59.2,56.7,50.0,56.7,53.2,46.6,95,88,78,30.18,29.97,9,2,12,0.40
2013-9-16,56.7,49.9,41.0,46.5,43.2,39.9,96,78,62,30.40,30.18,7,4,11,0.00
2013-9-17,68.5,51.8,37.6,48.3,42.8,36.8,98,76,36,30.40,30.17,6,2,7,0.01
2013-9-18,75.0,60.6,45.6,61.5,53.1,43.8,96,78,60,30.17,29.92,8,2,12,0.00
2013-9-19,78.8,69.6,63.0,70.8,65.5,57.8,97,87,73,29.95,29.71,10,4,18,1.05
2013-9-20,70.4,67.1,59.6,68.1,65.1,57.9,98,93,86,29.75,29.64,6,2,8,0.24
2013-9-21,60.1,54.7,49.9,58.5,49.5,41.7,95,83,70,29.91,29.66,10,4,12,0.01
2013-9-22,51.7,48.9,46.5,45.0,42.6,40.1,94,79,71,30.10,29.91,7,3,10,0.02
2013-9-23,64.2,48.8,34.9,47.6,41.7,34.1,97,79,50,30.19,30.10,6,2,8,0.00
2013-9-24,67.8,53.0,38.7,53.5,46.9,37.9,97,82,54,30.15,30.00,6,2,7,0.00
2013-9-25,70.5,54.1,39.5,54.1,47.1,39.0,99,81,33,30.03,29.98,5,1,9,0.01
2013-9-26,74.8,56.3,41.2,54.4,46.0,36.7,99,75,26,30.12,30.00,4,1,5,0.01
2013-9-27,78.9,60.7,43.6,55.5,50.0,42.8,98,73,38,30.20,30.11,7,2,10,0.00
2013-9-28,77.9,65.7,54.1,59.1,54.8,51.2,92,70,46,30.12,29.81,11,6,23,0.00
2013-9-29,72.8,59.0,44.9,61.2,51.2,43.6,98,78,51,30.00,29.81,9,2,13,0.20
2013-9-30,69.7,54.2,39.0,55.0,46.4,38.5,98,78,44,30.00,29.84,6,2,11,0.00
2013-10-1,77.0,65.4,53.6,64.6,58.8,48.7,93,80,59,29.87,29.72,10,5,19,0.00
2013-10-2,70.7,57.9,44.7,60.5,46.8,37.7,98,72,32,30.06,29.84,5,1,8,0.00
2013-10-3,74.9,60.8,49.6,66.1,54.8,42.1,99,82,63,30.05,29.87,8,2,12,0.53
2013-10-4,62.9,60.9,57.0,62.6,60.5,56.4,100,99,97,30.04,29.86,7,2,8,1.09
2013-10-5,65.2,60.1,56.5,62.1,58.6,55.8,99,95,87,30.04,29.80,11,5,14,2.47
2013-10-6,65.5,58.3,48.8,65.2,57.3,46.9,99,96,87,29.80,29.61,5,2,7,0.18
2013-10-7,58.7,50.5,43.0,49.6,47.0,42.2,98,88,68,30.07,29.57,6,2,9,0.36
2013-10-8,70.8,54.9,39.9,51.1,46.3,39.6,99,76,43,30.19,30.07,9,3,11,0.01
2013-10-9,73.1,61.0,48.4,55.4,50.5,46.7,97,70,46,30.23,30.15,6,3,8,0.00
2013-10-10,72.8,55.4,40.4,51.7,46.6,39.6,98,77,40,30.20,30.09,5,1,6,0.00
2013-10-11,71.6,56.0,42.5,54.1,45.9,42.0,99,73,38,30.13,30.02,6,2,8,0.01
2013-10-12,76.8,61.5,50.5,60.3,52.0,44.5,96,73,47,30.03,29.90,12,5,16,0.17
2013-10-13,56.1,51.0,44.4,52.9,46.6,42.3,95,85,70,30.38,30.03,4,1,7,0.01
2013-10-14,57.8,47.1,35.0,47.2,40.9,34.2,98,81,51,30.45,30.27,5,2,8,0.00
2013-10-15,59.7,50.2,39.3,57.5,47.5,37.7,97,91,74,30.27,29.70,9,3,13,0.27
2013-10-16,58.0,50.7,46.7,57.2,49.1,44.9,97,94,89,29.86,29.68,5,2,10,0.10
2013-10-17,49.6,45.4,36.0,45.6,43.7,35.2,98,94,79,29.87,29.74,2,0,2,0.07
2013-10-18,57.6,44.0,34.3,49.8,41.6,33.7,99,92,68,29.82,29.76,6,1,11,0.28
2013-10-19,51.6,45.0,39.3,45.3,39.7,33.2,98,83,53,29.81,29.68,5,1,7,0.37
2013-10-20,51.1,42.9,33.1,45.8,38.4,32.4,99,85,56,29.83,29.66,5,2,11,0.29
2013-10-21,48.5,43.1,33.9,47.5,38.6,26.3,97,84,68,29.80,29.65,5,3,12,0.06
2013-10-22,44.7,37.9,32.9,39.5,33.9,27.0,97,86,69,29.90,29.73,8,3,13,0.43
2013-10-23,43.3,34.4,30.7,37.2,32.7,29.9,98,94,65,29.90,29.85,7,1,10,0.31
2013-10-24,45.0,36.2,29.8,37.9,32.7,29.1,98,88,61,30.17,29.89,6,1,11,0.24
2013-10-25,44.3,38.6,32.1,38.8,33.2,29.3,98,82,60,30.26,29.81,10,3,14,0.05
2013-10-26,47.1,43.2,38.0,41.9,36.8,31.3,93,79,64,29.97,29.63,11,5,18,0.17
2013-10-27,49.1,41.5,36.0,37.3,34.2,31.3,89,76,57,29.97,29.86,7,2,11,0.00
2013-10-28,44.2,38.5,31.9,38.8,31.2,24.6,90,75,56,30.47,29.97,10,6,15,0.00
2013-10-29,42.3,34.4,23.8,33.8,28.0,21.3,91,78,56,30.49,30.23,6,2,9,0.00
2013-10-30,61.3,47.8,37.2,49.9,41.2,33.8,91,79,50,30.23,29.83,6,2,10,0.03
2013-10-31,61.9,56.1,52.3,60.2,55.0,50.1,99,96,92,29.82,29.14,6,2,8,0.58
2013-11-1,47.0,44.8,42.3,45.1,43.5,41.0,97,95,91,29.65,29.43,5,1,7,0.96
2013-11-2,42.2,39.8,35.8,40.9,36.4,30.2,96,88,76,30.15,29.65,8,4,11,0.04
2013-11-3,45.0,35.6,25.0,34.0,30.5,23.9,97,82,64,30.38,30.15,7,3,12,0.00
2013-11-4,49.8,42.4,34.5,36.0,32.3,28.0,88,69,48,30.39,30.15,13,8,19,0.00
2013-11-5,55.8,51.0,47.9,49.4,46.0,37.1,91,83,66,30.26,29.98,8,2,12,0.01
2013-11-6,54.6,46.4,35.8,53.8,44.6,34.2,98,94,83,29.99,29.62,9,5,16,1.20
2013-11-7,37.5,35.1,32.6,34.1,29.9,27.7,94,81,70,30.10,30.00,5,2,10,0.00
2013-11-8,41.5,35.7,32.2,31.7,29.5,26.1,95,79,57,30.24,30.05,6,1,8,0.03
2013-11-9,47.1,41.8,36.5,42.9,37.2,31.4,94,84,70,30.06,29.66,11,5,15,0.18
2013-11-10,41.5,39.2,35.4,35.9,33.1,29.6,92,79,65,30.22,29.85,10,4,16,0.06
2013-11-11,40.4,31.0,25.6,36.4,27.4,18.7,97,87,69,30.39,30.00,12,5,17,0.31
2013-11-12,28.5,26.5,20.9,24.9,20.2,16.7,95,77,63,30.58,30.39,9,4,13,0.00
2013-11-13,39.9,31.0,17.2,29.3,23.4,15.0,95,74,54,30.48,29.97,10,5,20,0.01
2013-11-14,45.3,40.2,36.3,36.0,31.7,27.4,83,71,64,29.99,29.84,7,4,17,0.00
2013-11-15,53.2,43.7,37.9,40.0,36.3,34.0,89,76,54,29.94,29.86,8,3,14,0.00
2013-11-16,54.0,46.7,38.9,52.4,43.5,35.9,95,89,84,29.95,29.52,14,7,21,0.12
2013-11-17,61.3,54.9,42.4,60.1,53.6,38.8,98,95,87,29.53,28.99,12,6,20,2.20
2013-11-18,42.2,35.7,31.3,38.3,29.1,22.6,96,77,67,30.15,29.32,9,6,19,0.01
2013-11-19,37.7,32.4,27.9,26.9,24.1,21.9,86,71,62,30.36,30.15,6,2,8,0.00
2013-11-20,44.9,36.9,31.6,29.5,26.4,23.2,75,66,44,30.34,30.18,10,6,13,0.00
2013-11-21,43.9,39.8,34.9,40.0,36.6,29.2,96,89,68,30.19,30.14,4,1,9,0.06
2013-11-22,40.1,31.8,25.9,39.3,30.0,22.5,97,93,79,30.39,30.17,9,4,11,0.08
2013-11-23,28.3,20.6,16.1,24.4,14.8,8.4,93,78,61,30.57,30.27,12,7,19,0.00
2013-11-24,24.2,18.9,16.4,17.4,12.8,9.6,91,77,68,30.59,30.18,10,4,17,0.00
2013-11-25,32.7,29.2,24.1,29.8,24.6,17.5,96,83,63,30.18,29.90,11,6,18,0.00
2013-11-26,33.2,28.6,18.8,30.7,26.7,16.6,96,93,88,30.08,29.93,9,3,12,0.00
2013-11-27,24.4,21.0,18.8,19.5,17.2,12.8,95,85,63,30.21,30.03,13,5,17,0.00
2013-11-28,24.1,19.4,13.1,21.5,17.3,11.7,94,91,87,30.45,30.20,7,2,9,0.00
2013-11-29,31.2,20.5,6.9,25.4,17.7,4.8,94,89,77,30.63,30.45,7,2,9,0.00
2013-11-30,39.2,32.8,21.9,34.7,28.9,18.7,93,85,79,30.47,30.01,8,4,11,0.09
2013-12-1,35.3,33.5,30.4,32.8,30.9,28.9,94,90,82,30.10,30.00,4,1,6,0.00
2013-12-2,39.1,31.4,24.2,29.9,27.1,21.9,96,85,62,30.00,29.87,2,0,4,0.00
2013-12-3,30.2,27.9,25.4,29.4,25.7,23.1,97,91,85,29.95,29.86,8,4,10,0.00
2013-12-4,48.9,36.2,30.4,48.5,35.7,29.7,99,98,97,29.88,29.43,10,5,13,0.27
2013-12-5,48.7,31.4,19.6,47.9,26.2,13.3,97,81,72,30.13,29.43,9,6,16,0.00
2013-12-6,19.4,18.0,17.1,15.3,13.6,11.8,90,82,75,30.41,30.12,5,2,10,0.00
2013-12-7,17.5,15.2,12.7,14.1,9.7,6.0,90,79,65,30.60,30.41,5,2,10,0.00
2013-12-8,19.2,15.3,8.1,16.5,10.8,4.8,93,82,69,30.58,30.03,6,2,8,0.00
2013-12-9,27.0,19.0,8.8,25.2,16.3,6.2,95,89,72,30.05,29.82,8,3,16,0.00
2013-12-10,16.5,11.8,8.3,13.8,9.4,5.6,92,90,87,30.14,29.82,6,3,9,0.00
2013-12-11,13.4,11.1,9.3,10.8,8.7,7.0,92,90,87,30.40,30.14,4,1,6,0.00
2013-12-12,18.6,12.6,7.0,14.6,9.5,4.2,91,87,78,30.40,30.12,3,1,7,0.00
2013-12-13,19.1,15.6,9.3,15.1,10.2,1.1,90,79,68,30.40,30.12,8,3,11,0.00
2013-12-14,18.2,13.5,7.9,16.2,10.5,0.9,93,88,71,30.40,29.93,10,4,16,0.00
2013-12-15,20.1,17.1,15.1,18.8,15.1,12.3,95,92,87,30.00,29.78,6,1,11,0.01
2013-12-16,19.6,14.4,8.9,13.7,10.7,6.2,92,85,71,30.17,29.96,8,3,10,0.00
2013-12-17,26.6,20.9,15.6,22.7,18.6,12.7,95,91,83,29.96,29.81,6,2,8,0.00
2013-12-18,24.7,23.2,20.8,22.4,18.9,17.2,95,84,78,30.05,29.75,7,2,8,0.00
2013-12-19,30.1,24.7,17.3,27.1,22.4,16.1,97,91,85,30.09,29.74,8,3,9,0.00
2013-12-20,24.2,22.2,20.6,23.0,20.8,19.2,95,94,91,30.00,29.87,10,7,17,0.00
2013-12-21,27.5,26.1,24.6,26.1,24.5,22.3,97,94,91,29.95,29.85,8,4,10,0.00
2013-12-22,25.2,21.5,17.1,23.2,20.0,15.7,96,94,91,30.05,29.74,13,7,18,0.00
2013-12-23,20.2,16.3,12.5,16.7,14.1,10.4,95,91,85,30.35,30.06,4,1,6,0.00
2013-12-24,18.2,11.8,6.9,10.8,8.0,4.5,92,85,68,30.51,30.34,5,1,7,0.00
2013-12-25,23.0,18.9,12.7,20.7,16.4,10.3,94,90,83,30.42,30.04,12,4,16,0.00
2013-12-26,24.0,20.6,19.0,19.6,17.8,15.2,95,89,74,30.22,30.00,2,0,5,0.00
2013-12-27,35.7,24.6,13.8,32.4,22.1,11.8,94,90,82,30.26,29.92,10,3,20,0.00
2013-12-28,45.2,37.4,33.3,37.1,32.3,-99.9,90,83,73,30.00,29.73,8,-3,17,0.18
2013-12-29,39.9,22.5,11.4,34.5,16.5,-99.9,95,86,78,30.07,29.68,13,-25,19,0.00
2013-12-30,13.5,10.8,8.9,8.3,5.3,-99.9,91,83,74,30.27,30.08,5,-16,12,0.00
2013-12-31,9.9,7.9,7.4,6.8,-0.4,-99.9,90,81,78,30.37,30.07,6,-41,18,0.00
2014-1-1,12.7,7.8,4.6,5.7,-2.1,-99.9,88,75,67,30.47,30.36,5,-45,11,0.00
2014-1-2,10.5,6.2,1.7,6.7,-6.4,-99.9,88,71,64,30.41,30.31,9,-68,15,0.00